Other Surface Observations
Issued by NWS Charleston, SC

Home | Current Version | Previous Version | Text Only | Print | Product List | Glossary On
Versions: 1 2 3 4 5 6 7 8 9 10 11 12 13 14 15 16 17 18 19 20 21 22 23 24 25 26 27 28 29 30 31 32 33 34 35 36 37 38 39 40 41 42 43 44 45 46 47 48 49 50
000
SXUS52 KCHS 030527
OSOCHS

MARINE OBSERVATIONS
NATIONAL WEATHER SERVICE CHARLESTON SC
100 AM EDT MON AUG 03 2015

...DOWNTOWN CHARLESTON AND HARBOR...

CITY           SKY/WX    TMP DP  RH WIND       PRES   REMARKS
WATERFRONT PRK   N/A     80  76  87 S12       29.89S

...LAKE MOULTRIE...

CITY           SKY/WX    TMP DP  RH WIND       PRES   REMARKS
PINOPOLIS      NOT AVBL

...LAKE AND SUPPLEMENTAL COASTAL OBSERVATIONS...

STATION/POSITION TIME  TEMP    WIND        PRES    WAVE   SWELL
                       AIR SEA DIR/SP/G            HT/PER HT/PER/DIR
                 (UTC) (F)     (DEG/KT/KT) (MB)    (FT/S) (FT/S/D)
FORT PULASKI     0500   81 86  160/  7/ 14 1012.7F
SAPELO ISLAND    0500   80     160/ 16     1012.0S
UPR LAKE MARION  NOT AVBL
WINYAH BAY       0400   80     180/ 17     1012.0
LAKE MURRAY      0500   79     140/  6/ 10 1012.5S
ACE BASIN NERRS  NOT AVBL


...C-MAN AND BUOY OBSERVATIONS...

STATION/POSITION TIME  TEMP    WIND        PRES    WAVE   SWELL
                       AIR SEA DIR/SP/G            HT/PER HT/PER/DIR
                 (UTC) (F)     (DEG/KT/KT) (MB)    (FT/S) (FT/S/D)
BUOY 41004       0450   82 83  170/ 21/ 25 1012.6F   7/ 6   2/11
BUOY 41008       0450   80 83  180/ 19/ 21 1012.2F   6/ 6   2/100/10
FOLLY BEACH CMAN 0500   82     180/ 21/ 25 1012.8F
CAPERS NS BUOY   0408   81     210/ 17/ 25 1013.5F
FRIPP NS BUOY    0400   82     190/ 16/ 19 1012.3
5E ST. MARYS GA  0421      82                N/A     5/ 6   2/120/13


STATION/POSITION TIME  TEMP    WIND        PRES    WAVE   SWELL
                       AIR SEA DIR/SP/G            HT/PER HT/PER/DIR
                 (UTC) (F)     (DEG/KT/KT) (MB)    (FT/S) (FT/S/D)
FRYING PAN BUOY  0450   81 83  210/ 25/ 31 1014.2F   8/ 7
BUOY 41025       0450   82 85  220/ 14/ 16 1014.2F   3/ 4   2/150/ 8
CAPE LOOKOUT NC  0500   76     190/ 10/ 13 1013.8F
BUOY 41002       0450   82 81  200/ 14/ 16 1016.9R   4/ 7   3/250/ 7
BUOY 41010       0420   82 84  180/  4/  6 1016.0S
ST AUGUSTINE FL  0500   78 80  170/ 17/ 19 1013.0F

$$



USA.gov is the U.S. government's official web portal to all federal, state and local government web resources and services.